[[{"header":{"parameterUnit":"m.s-1","parameterCategory":1,"la1":30.2991,"la2":30.254,"lo1":-89.0895,"lo2":-89.0444,"dy":0.0017,"dx":0.0017,"nx":28,"ny":28,"refTime":"2024-03-12T03:00:00:Z","depth":0,"parameterNumber":2,"parameterNumberName":"U-component_of_WINDS"},"data":[0,0,0,0,0,0,0,0,0,0,0,0,0,0,0,0,0,0,0,0,0,0,0,0,0,0,0,0,0,0,0,0,0,0,0,0,0,0,0,0,0,0,0,0,0,0,0,0,0,0,0,0,0,0,0,0,0,0,-0.1447,-0.1448,0,-0.1462,-0.1462,-0.1462,-0.1437,-0.1436,-0.1435,-0.1434,-0.1452,-0.1453,-0.1454,0,0,0,0,0,0,0,0,0,0,0,0,0,-0.14,-0.1401,-0.1447,-0.1448,-0.1448,-0.1462,-0.1462,-0.1462,-0.1437,-0.1436,-0.1435,-0.1434,-0.1451,-0.1453,-0.1454,0,0,0,0,0,0,0,0,0,0,0,0,0,-0.1418,-0.1401,-0.1447,-0.1437,-0.1436,-0.1462,-0.1462,-0.1463,-0.1437,-0.1436,-0.1435,-0.1433,-0.1451,-0.1452,-0.1454,-0.1492,0,0,-0.146,-0.1461,0,0,0,0,0,0,0,0,-0.1417,-0.142,-0.1438,-0.1437,-0.1437,-0.1446,-0.1452,-0.1473,-0.1438,-0.1437,-0.1434,-0.1433,-0.1451,-0.1453,-0.1458,-0.1493,-0.1494,-0.146,-0.1461,-0.1462,-0.1463,0,0,0,0,0,0,0,-0.1416,-0.1419,-0.1453,-0.1438,-0.1438,-0.1432,-0.1433,-0.1455,-0.1451,-0.1437,-0.1435,-0.1437,-0.145,-0.1457,-0.1459,-0.1494,-0.146,-0.1462,-0.1463,-0.1464,-0.1561,-0.1562,0,0,0,0,0,0,-0.1415,-0.1418,-0.1453,-0.1454,-0.1423,-0.1434,-0.1435,-0.1445,-0.1451,-0.145,-0.1438,-0.1436,-0.1454,-0.1456,-0.1459,-0.1504,-0.1462,-0.1464,-0.1465,-0.1559,-0.1561,-0.1563,0,0,0,0,0,0,-0.1414,-0.1419,-0.1452,-0.1435,-0.1439,-0.1436,-0.1447,-0.1446,-0.1452,-0.1452,-0.1451,-0.1445,-0.1453,-0.1456,-0.1484,-0.1505,-0.1465,-0.1467,-0.1558,-0.156,-0.1562,-0.1595,0,0,0,0,0,0,-0.1413,-0.1419,-0.1432,-0.1436,-0.144,-0.1476,-0.1448,-0.1447,-0.1455,-0.1452,-0.1458,-0.1458,-0.1452,-0.1481,-0.1486,-0.1506,-0.1468,-0.1556,-0.1559,-0.1561,-0.1592,-0.1598,-0.1603,0,0,0,0,0,-0.1412,-0.1441,-0.1433,-0.1438,-0.1457,-0.1478,-0.148,-0.1472,-0.1457,-0.1471,-0.1471,-0.1458,-0.1501,-0.1484,-0.1489,-0.1511,-0.1555,-0.1558,-0.1561,-0.1589,-0.1597,-0.1603,0,0,0,0,0,0,-0.1441,-0.1442,-0.1433,-0.1464,-0.1471,-0.1473,-0.1491,-0.148,-0.1492,-0.1489,-0.148,-0.1481,-0.1511,-0.1514,-0.1495,-0.1548,-0.1525,-0.153,-0.1545,-0.1552,-0.1558,-0.1557,-0.147,0,0,0,0,0,-0.1451,-0.1467,-0.1467,-0.1495,-0.1498,-0.1494,-0.1503,-0.1496,-0.1503,-0.1506,-0.1508,-0.1516,-0.1531,-0.1542,-0.1556,-0.1592,-0.1593,-0.1609,-0.1615,-0.1619,-0.1623,-0.1643,-0.165,-0.1573,-0.1573,-0.1573,0,0,-0.1472,-0.1475,-0.1485,-0.1501,-0.1505,-0.1522,-0.1497,-0.1516,-0.1529,-0.1509,-0.1535,-0.1537,-0.1545,-0.1577,-0.1592,-0.158,-0.1645,-0.1623,-0.1627,-0.1628,-0.1647,-0.1654,-0.1661,-0.1576,-0.1575,-0.1575,0,0,-0.152,-0.1523,-0.1547,-0.1552,-0.1558,-0.1555,-0.1561,-0.1565,-0.1565,-0.1591,-0.1577,-0.1592,-0.1619,-0.1626,-0.1632,-0.1683,-0.1672,-0.1688,-0.1717,-0.1736,-0.1742,-0.1748,-0.1766,-0.1773,-0.1692,-0.1692,-0.1692,0,-0.1546,-0.157,-0.1561,-0.1581,-0.1588,-0.157,-0.1595,-0.16,-0.1612,-0.1618,-0.1605,-0.1638,-0.1643,-0.1676,-0.1689,-0.1694,-0.1701,-0.1687,-0.1742,-0.1747,-0.1752,-0.177,-0.1777,-0.1694,-0.1693,-0.1693,-0.1693,0,-0.1602,-0.162,-0.1638,-0.1649,-0.1659,-0.1681,-0.1675,-0.1686,-0.1679,-0.1678,-0.1705,-0.1709,-0.1724,-0.1731,-0.1725,-0.1764,-0.1757,-0.1743,-0.1721,-0.1762,-0.1778,-0.1785,-0.1696,-0.1696,-0.1695,-0.1695,0,0,-0.1669,-0.1674,-0.1681,-0.1686,-0.1692,-0.1706,-0.1728,-0.1742,-0.1752,-0.176,-0.1779,-0.1802,-0.1789,-0.1797,-0.1791,-0.1808,-0.1848,-0.1792,-0.1792,-0.1803,-0.1893,-0.1904,-0.1912,-0.1841,-0.1842,-0.1843,-0.1893,0,-0.1717,-0.1754,-0.1746,-0.1783,-0.1799,-0.1782,-0.1801,-0.1808,-0.1807,-0.1821,-0.1821,-0.1837,-0.1819,-0.1824,-0.184,-0.184,-0.1867,-0.1836,-0.1859,-0.186,-0.1858,-0.1921,-0.1933,-0.198,-0.1899,-0.19,-0.1901,0,-0.1778,-0.1788,-0.1827,-0.183,-0.1837,-0.1854,-0.1867,-0.188,-0.1887,-0.1886,-0.1894,-0.1885,-0.1907,-0.1884,-0.1915,-0.1895,-0.1904,-0.1905,-0.1907,-0.191,-0.1884,-0.1926,-0.1994,-0.2002,-0.1911,-0.191,-0.191,0,-0.1824,-0.1847,-0.1873,-0.1878,-0.1883,-0.1896,-0.1898,-0.1904,-0.1913,-0.1924,-0.193,-0.1944,-0.1952,-0.1963,-0.1958,-0.1941,-0.1991,-0.1966,-0.1991,-0.1991,-0.2003,-0.2002,-0.2074,-0.2007,-0.2007,-0.2007,-0.2007,0,-0.1879,-0.1903,-0.1894,-0.191,-0.1937,-0.1928,-0.1955,-0.1956,-0.1961,-0.1978,-0.1964,-0.198,-0.1972,-0.1987,-0.1984,-0.2011,-0.2014,-0.2014,-0.2013,-0.2016,-0.2016,-0.2022,-0.2019,-0.2009,-0.2008,-0.2008,-0.2007,0,-0.1935,-0.193,-0.1958,-0.196,-0.1961,-0.1981,-0.1983,-0.1998,-0.1996,-0.2018,-0.2022,-0.2019,-0.2037,-0.2033,-0.2052,-0.205,-0.2084,-0.2078,-0.2082,-0.2081,-0.2105,-0.2104,-0.2185,-0.2195,-0.212,-0.2121,-0.2122,0,-0.1971,-0.1989,-0.1993,-0.2003,-0.2007,-0.2023,-0.2032,-0.2023,-0.2033,-0.2043,-0.2057,-0.2074,-0.2086,-0.2116,-0.2116,-0.2131,-0.2126,-0.2153,-0.2128,-0.2131,-0.2128,-0.2127,-0.2129,-0.2159,-0.216,-0.216,-0.2161,0,-0.2036,-0.2032,-0.2045,-0.2058,-0.2068,-0.2078,-0.2086,-0.2095,-0.2087,-0.21,-0.2117,-0.2127,-0.2147,-0.2164,-0.2177,-0.2181,-0.217,-0.2169,-0.2175,-0.2179,-0.218,-0.2181,-0.2096,-0.2167,-0.2167,-0.2166,-0.2166,-0.2166,-0.2083,-0.2099,-0.2104,-0.2119,-0.2125,-0.2133,-0.2147,-0.2147,-0.2161,-0.2176,-0.217,-0.2191,-0.2198,-0.2215,-0.222,-0.2237,-0.2227,-0.2236,-0.2238,-0.2241,-0.2245,-0.2177,-0.2239,-0.2239,-0.2239,-0.2239,-0.2239,0,-0.2148,-0.215,-0.2164,-0.2176,-0.2188,-0.2176,-0.2184,-0.2196,-0.2213,-0.2221,-0.2233,-0.2254,-0.227,-0.2271,-0.2287,-0.23,-0.2295,-0.2304,-0.2304,-0.2305,-0.2252,-0.2246,-0.2308,-0.2308,-0.2308,-0.2307,-0.2307,-0.2307,-0.2183,-0.2209,-0.2206,-0.2234,-0.2237,-0.2256,-0.2262,-0.227,-0.2275,-0.2299,-0.2312,-0.2312,-0.2317,-0.2333,-0.2348,-0.2348,-0.2354,-0.2366,-0.2364,-0.2315,-0.2308,-0.2302,-0.2295,-0.2367,-0.2367,-0.2415,-0.2415,-0.2416]},{"header":{"parameterUnit":"m.s-1","parameterCategory":1,"la1":30.2991,"la2":30.254,"lo1":-89.0895,"lo2":-89.0444,"dy":0.0017,"dx":0.0017,"nx":28,"ny":28,"refTime":"2024-03-12T03:00:00:Z","depth":0,"parameterNumber":3,"parameterNumberName":"V-component_of_WINDS"},"data":[0,0,0,0,0,0,0,0,0,0,0,0,0,0,0,0,0,0,0,0,0,0,0,0,0,0,0,0,0,0,0,0,0,0,0,0,0,0,0,0,0,0,0,0,0,0,0,0,0,0,0,0,0,0,0,0,0,0,1.7951,1.7951,0,1.7955,1.7955,1.7955,1.793,1.7929,1.7928,1.7928,1.7931,1.7932,1.7933,0,0,0,0,0,0,0,0,0,0,0,0,0,1.7918,1.7918,1.7951,1.7951,1.7951,1.7955,1.7955,1.7956,1.793,1.7929,1.7928,1.7927,1.7931,1.7932,1.7933,0,0,0,0,0,0,0,0,0,0,0,0,0,1.7928,1.7919,1.7951,1.7939,1.7938,1.7955,1.7955,1.7956,1.793,1.7929,1.7928,1.7927,1.7931,1.7932,1.7933,1.7962,0,0,1.7937,1.7937,0,0,0,0,0,0,0,0,1.7928,1.7929,1.7941,1.794,1.7939,1.7941,1.7945,1.7958,1.793,1.7933,1.7928,1.7926,1.7935,1.7936,1.7939,1.7962,1.7963,1.7937,1.7937,1.7938,1.7938,0,0,0,0,0,0,0,1.7927,1.7929,1.7953,1.7941,1.7939,1.7932,1.7933,1.7947,1.794,1.7933,1.7931,1.7932,1.7934,1.7938,1.7939,1.7963,1.7937,1.7938,1.7938,1.7939,1.8007,1.8008,0,0,0,0,0,0,1.7928,1.7929,1.7953,1.7953,1.793,1.7934,1.7934,1.7941,1.794,1.7939,1.7933,1.793,1.7937,1.7938,1.7939,1.7971,1.7938,1.7939,1.794,1.8006,1.8007,1.8008,0,0,0,0,0,0,1.7927,1.793,1.7952,1.794,1.7942,1.7936,1.7944,1.7942,1.7946,1.794,1.7938,1.7938,1.7936,1.7937,1.7956,1.7971,1.7939,1.7941,1.8004,1.8006,1.8008,1.8037,0,0,0,0,0,0,1.7927,1.793,1.7942,1.7941,1.7943,1.797,1.7945,1.7943,1.7948,1.7945,1.7944,1.7943,1.7935,1.7954,1.7957,1.7972,1.7941,1.8003,1.8005,1.8007,1.8035,1.804,1.8044,0,0,0,0,0,1.7926,1.7951,1.7943,1.7946,1.7958,1.7971,1.7972,1.7963,1.7949,1.796,1.7956,1.7943,1.7969,1.7957,1.7959,1.7975,1.8002,1.8005,1.8007,1.8033,1.8039,1.8044,0,0,0,0,0,0,1.7955,1.7951,1.7942,1.7968,1.797,1.7967,1.7981,1.797,1.7976,1.7973,1.796,1.7961,1.7981,1.798,1.7966,1.8002,1.7983,1.7986,1.8002,1.8007,1.8012,1.8011,1.7942,0,0,0,0,0,1.7964,1.7976,1.7971,1.7994,1.7996,1.7988,1.7994,1.7986,1.7987,1.7988,1.7986,1.7988,1.7996,1.8002,1.8009,1.8035,1.8033,1.8046,1.8051,1.8055,1.8057,1.8068,1.8074,1.8016,1.8016,1.8016,0,0,1.7984,1.7983,1.7991,1.8,1.8001,1.8012,1.7989,1.8003,1.801,1.799,1.8007,1.8005,1.8006,1.8028,1.8037,1.8028,1.8073,1.8058,1.8061,1.8061,1.8071,1.8077,1.8081,1.8018,1.8018,1.8017,0,0,1.8025,1.8026,1.8045,1.8045,1.8047,1.8041,1.8045,1.8043,1.8041,1.8058,1.8042,1.8051,1.8066,1.8067,1.8069,1.8108,1.8095,1.811,1.8134,1.8144,1.8149,1.8153,1.8165,1.8169,1.8113,1.8113,1.8113,0,1.8049,1.8066,1.8055,1.8069,1.8072,1.8054,1.8071,1.8073,1.8077,1.8079,1.8068,1.8085,1.8085,1.8105,1.8114,1.8117,1.812,1.811,1.8149,1.8153,1.8156,1.8168,1.8172,1.8115,1.8115,1.8115,1.8114,0,1.8095,1.8106,1.8121,1.8124,1.8129,1.8145,1.8135,1.8141,1.8132,1.8127,1.8143,1.8142,1.8147,1.8152,1.8144,1.817,1.8164,1.8152,1.8132,1.8164,1.8174,1.8178,1.8117,1.8117,1.8116,1.8116,0,0,1.8156,1.8151,1.8156,1.8156,1.8156,1.8164,1.8178,1.8183,1.8188,1.819,1.82,1.8212,1.82,1.8203,1.8194,1.8204,1.8232,1.819,1.8189,1.8196,1.8258,1.8267,1.8272,1.8224,1.8224,1.8225,1.8258,0,1.8195,1.8218,1.8208,1.8232,1.8241,1.8223,1.8234,1.8234,1.8229,1.8236,1.823,1.8238,1.8223,1.8224,1.8232,1.8227,1.8244,1.8224,1.8231,1.8232,1.8231,1.8278,1.8287,1.8318,1.8262,1.8262,1.8263,0,1.8244,1.8247,1.8272,1.8267,1.827,1.8281,1.8284,1.8291,1.8289,1.8285,1.8287,1.8275,1.8287,1.8268,1.8283,1.827,1.8272,1.8269,1.827,1.827,1.8249,1.8277,1.8328,1.8332,1.8269,1.8269,1.8268,0,1.8283,1.8294,1.831,1.8311,1.8306,1.8314,1.8312,1.8309,1.8312,1.8314,1.8316,1.832,1.8321,1.8324,1.8313,1.83,1.8328,1.8309,1.8323,1.8324,1.833,1.8329,1.838,1.8333,1.8333,1.8333,1.8333,0,1.8327,1.8343,1.8327,1.8337,1.8353,1.834,1.8356,1.8352,1.835,1.8357,1.8342,1.8349,1.8335,1.834,1.8332,1.8344,1.8345,1.8341,1.8338,1.8342,1.8342,1.8342,1.8339,1.8334,1.8334,1.8334,1.8333,0,1.8374,1.8365,1.8381,1.8374,1.8372,1.8384,1.8378,1.8386,1.8379,1.8389,1.839,1.838,1.8385,1.8374,1.8378,1.8372,1.8389,1.8384,1.839,1.8387,1.8402,1.84,1.8454,1.8459,1.841,1.8411,1.8411,0,1.8403,1.8414,1.8408,1.8412,1.841,1.8417,1.8419,1.8406,1.841,1.8407,1.8415,1.8419,1.8421,1.843,1.8422,1.8424,1.8418,1.8437,1.8418,1.8421,1.8416,1.8415,1.8415,1.844,1.8441,1.8441,1.8442,0,1.8453,1.8447,1.8452,1.8454,1.8457,1.8458,1.8458,1.8462,1.8448,1.8452,1.8457,1.8458,1.8461,1.8465,1.8465,1.8462,1.8449,1.8448,1.8451,1.8454,1.8456,1.8453,1.8398,1.8446,1.8446,1.8446,1.8445,1.8445,1.8491,1.8499,1.8495,1.85,1.8498,1.8498,1.8504,1.8497,1.8501,1.8503,1.8495,1.8501,1.8497,1.8495,1.8493,1.8497,1.8488,1.8494,1.8495,1.8496,1.8497,1.8456,1.8497,1.8497,1.8497,1.8497,1.8497,0,1.8539,1.8535,1.8539,1.8539,1.8542,1.853,1.8528,1.8531,1.8537,1.8534,1.8536,1.8541,1.8543,1.8535,1.8536,1.854,1.8534,1.8541,1.854,1.8539,1.8506,1.8502,1.8545,1.8545,1.8545,1.8545,1.8545,1.8545,1.8564,1.8577,1.857,1.8581,1.8577,1.8582,1.8582,1.8581,1.8579,1.8584,1.8586,1.858,1.8575,1.8575,1.8576,1.8573,1.8573,1.8582,1.8577,1.8546,1.8541,1.8537,1.8533,1.8582,1.8582,1.8609,1.8609,1.861]}]]